| time (UTC) | temp F | wind direction | speed knots | gust knots | rain 1hr in | rain 24hr in | rain mn in | humidity % | barometer mb |
| 20260504110311 | 40 | 248 | 0.0 | 0.0 | 0.00 | 0.00 | 0.00 | 99 | 1015.0 |
| 20260504100228 | 40 | 265 | 0.0 | 0.0 | 0.00 | 0.00 | 0.00 | 98 | 1014.5 |
| 20260504081622 | 42 | 270 | 0.0 | 0.0 | 0.00 | 0.00 | 0.00 | 96 | 1014.7 |
| 20260504081118 | 42 | 270 | 0.0 | 0.0 | 0.00 | 0.00 | 0.00 | 96 | 1014.5 |
| 20260504080615 | 42 | 270 | 0.0 | 0.0 | 0.00 | 0.00 | 0.00 | 96 | 1014.6 |
| 20260504080111 | 42 | 270 | 0.0 | 0.0 | 0.00 | 0.00 | 0.00 | 96 | 1014.5 |
| 20260504050427 | 47 | 290 | 0.9 | 0.9 | 0.00 | 0.00 | 0.00 | 85 | 1015.6 |
| 20260504045924 | 46 | 280 | 0.0 | 0.0 | 0.00 | 0.00 | 0.00 | 86 | 1015.3 |
| 20260504045420 | 47 | 313 | 0.9 | 1.7 | 0.00 | 0.00 | 0.00 | 85 | 1015.5 |
| 20260504044916 | 47 | 280 | 0.0 | 0.0 | 0.00 | 0.00 | 0.00 | 84 | 1015.3 |
| 20260504044414 | 46 | 280 | 0.0 | 0.0 | 0.00 | 0.00 | 0.00 | 85 | 1015.1 |
| 20260504043911 | 46 | 270 | 0.0 | 0.0 | 0.00 | 0.00 | 0.00 | 86 | 1015.2 |
| 20260504043408 | 46 | 280 | 0.0 | 0.0 | 0.00 | 0.00 | 0.00 | 86 | 1015.2 |
| 20260504042906 | 47 | 280 | 0.0 | 0.0 | 0.00 | 0.00 | 0.00 | 86 | 1015.1 |
| 20260504042402 | 47 | 287 | 0.0 | 0.0 | 0.00 | 0.00 | 0.00 | 85 | 1015.1 |
| 20260504041858 | 47 | 280 | 0.0 | 0.0 | 0.00 | 0.00 | 0.00 | 85 | 1015.3 |
| 20260504041354 | 48 | 280 | 0.0 | 0.0 | 0.00 | 0.00 | 0.00 | 83 | 1015.3 |
| 20260504040850 | 48 | 280 | 0.0 | 0.0 | 0.00 | 0.00 | 0.00 | 82 | 1015.3 |
| 20260504040348 | 48 | 280 | 0.0 | 0.0 | 0.00 | 0.00 | 0.00 | 82 | 1015.4 |
| 20260504035844 | 48 | 288 | 0.0 | 0.0 | 0.00 | 0.00 | 0.00 | 79 | 1015.3 |
| 20260504035342 | 49 | 280 | 0.0 | 0.0 | 0.00 | 0.00 | 0.00 | 79 | 1015.4 |
| 20260504034838 | 49 | 288 | 0.0 | 0.0 | 0.00 | 0.00 | 0.00 | 79 | 1015.3 |
| 20260504034336 | 49 | 290 | 0.0 | 0.0 | 0.00 | 0.00 | 0.00 | 80 | 1015.2 |
| 20260504033833 | 49 | 280 | 0.0 | 0.0 | 0.00 | 0.00 | 0.00 | 81 | 1015.2 |
| 20260504033331 | 49 | 280 | 0.0 | 0.0 | 0.00 | 0.00 | 0.00 | 80 | 1015.4 |
| 20260504032827 | 49 | 304 | 0.9 | 0.9 | 0.00 | 0.00 | 0.00 | 81 | 1015.3 |
| 20260504032325 | 49 | 297 | 0.9 | 1.7 | 0.00 | 0.00 | 0.00 | 81 | 1015.6 |
| 20260504031821 | 49 | 279 | 0.0 | 0.0 | 0.00 | 0.00 | 0.00 | 81 | 1015.1 |
| 20260504031319 | 49 | 273 | 0.0 | 0.0 | 0.00 | 0.00 | 0.00 | 82 | 1015.4 |
| 20260504030815 | 49 | 264 | 0.0 | 0.0 | 0.00 | 0.00 | 0.00 | 81 | 1015.3 |
| 20260504030312 | 49 | 264 | 0.0 | 0.0 | 0.00 | 0.00 | 0.00 | 79 | 1015.2 |
| 20260504025808 | 50 | 263 | 0.0 | 0.0 | 0.00 | 0.00 | 0.00 | 80 | 1015.1 |
| 20260504025305 | 50 | 270 | 0.0 | 0.0 | 0.00 | 0.00 | 0.00 | 78 | 1015.3 |
| 20260504024801 | 50 | 273 | 0.0 | 0.0 | 0.00 | 0.00 | 0.00 | 80 | 1015.4 |
| 20260504024258 | 50 | 266 | 0.0 | 0.0 | 0.00 | 0.00 | 0.00 | 78 | 1015.5 |
| 20260504023755 | 51 | 252 | 0.9 | 0.9 | 0.00 | 0.00 | 0.00 | 78 | 1015.2 |
| 20260504023252 | 51 | 280 | 0.0 | 0.0 | 0.00 | 0.00 | 0.00 | 76 | 1015.2 |
| 20260504022747 | 51 | 280 | 0.0 | 0.0 | 0.00 | 0.00 | 0.00 | 76 | 1015.2 |
| 20260504022244 | 52 | 280 | 0.0 | 0.0 | 0.00 | 0.00 | 0.00 | 74 | 1015.0 |
| 20260504021741 | 52 | 291 | 0.9 | 0.9 | 0.00 | 0.00 | 0.00 | 75 | 1015.0 |
| 20260504021238 | 52 | 288 | 0.9 | 0.9 | 0.00 | 0.00 | 0.00 | 73 | 1015.0 |
| 20260504020735 | 52 | 289 | 0.9 | 0.9 | 0.00 | 0.00 | 0.00 | 73 | 1015.1 |
| 20260504020232 | 52 | 288 | 0.9 | 0.9 | 0.00 | 0.00 | 0.00 | 72 | 1015.0 |
| 20260504015728 | 53 | 288 | 0.9 | 0.9 | 0.00 | 0.00 | 0.00 | 71 | 1015.1 |
| 20260504015224 | 53 | 288 | 0.9 | 0.9 | 0.00 | 0.00 | 0.00 | 71 | 1015.0 |
| 20260504014720 | 53 | 297 | 0.9 | 1.7 | 0.00 | 0.00 | 0.00 | 72 | 1014.7 |
| 20260504014217 | 53 | 271 | 0.9 | 0.9 | 0.00 | 0.00 | 0.00 | 72 | 1014.5 |
| 20260504013715 | 53 | 275 | 0.9 | 0.9 | 0.00 | 0.00 | 0.00 | 72 | 1014.9 |
| 20260504013212 | 53 | 275 | 0.9 | 0.9 | 0.00 | 0.00 | 0.00 | 70 | 1014.3 |
| 20260504012709 | 54 | 275 | 0.9 | 0.9 | 0.00 | 0.00 | 0.00 | 69 | 1014.6 |
| 20260504012207 | 54 | 275 | 0.9 | 0.9 | 0.00 | 0.00 | 0.00 | 70 | 1014.5 |
| 20260504011703 | 54 | 270 | 0.9 | 0.9 | 0.00 | 0.00 | 0.00 | 68 | 1014.4 |
| 20260504011200 | 54 | 270 | 0.9 | 0.9 | 0.00 | 0.00 | 0.00 | 66 | 1014.4 |
| 20260504010656 | 55 | 270 | 0.9 | 0.9 | 0.00 | 0.00 | 0.00 | 67 | 1014.3 |
| 20260504010151 | 56 | 265 | 0.0 | 0.9 | 0.00 | 0.00 | 0.00 | 67 | 1014.4 |
| 20260504005649 | 56 | 255 | 0.0 | 0.0 | 0.00 | 0.00 | 0.00 | 63 | 1014.2 |
| 20260504005145 | 57 | 255 | 0.0 | 0.0 | 0.00 | 0.00 | 0.00 | 62 | 1014.4 |
| 20260504004644 | 57 | 255 | 0.0 | 0.0 | 0.00 | 0.00 | 0.00 | 63 | 1014.2 |
| 20260504004140 | 57 | 255 | 0.0 | 0.0 | 0.00 | 0.00 | 0.00 | 62 | 1014.1 |
| 20260504003637 | 58 | 255 | 0.0 | 0.0 | 0.00 | 0.00 | 0.00 | 61 | 1014.2 |
| 20260504003133 | 59 | 255 | 0.0 | 0.0 | 0.00 | 0.00 | 0.00 | 58 | 1014.2 |
| 20260504002630 | 59 | 255 | 0.0 | 0.0 | 0.00 | 0.00 | 0.00 | 57 | 1014.4 |
| 20260504002128 | 59 | 255 | 0.0 | 0.0 | 0.00 | 0.00 | 0.00 | 57 | 1014.2 |
| 20260504001626 | 60 | 253 | 0.0 | 0.0 | 0.00 | 0.00 | 0.00 | 55 | 1014.1 |
| 20260504001121 | 60 | 260 | 0.0 | 0.0 | 0.00 | 0.00 | 0.00 | 54 | 1014.1 |
| 20260504000619 | 61 | 248 | 0.0 | 0.9 | 0.00 | 0.00 | 0.00 | 54 | 1013.9 |
| 20260504000116 | 61 | 264 | 0.0 | 0.9 | 0.00 | 0.00 | 0.00 | 53 | 1013.9 |
| 20260503235614 | 62 | 265 | 0.9 | 0.9 | 0.00 | 0.00 | 0.00 | 50 | 1013.7 |
| 20260503235110 | 62 | 265 | 0.0 | 0.9 | 0.00 | 0.00 | 0.00 | 49 | 1013.8 |
| 20260503234609 | 62 | 265 | 0.9 | 0.9 | 0.00 | 0.00 | 0.00 | 49 | 1013.6 |
| 20260503234106 | 62 | 261 | 1.7 | 1.7 | 0.00 | 0.00 | 0.00 | 49 | 1013.7 |
| 20260503233603 | 63 | 264 | 0.0 | 0.9 | 0.00 | 0.00 | 0.00 | 49 | 1014.0 |
| 20260503233059 | 63 | 263 | 0.9 | 1.7 | 0.00 | 0.00 | 0.00 | 48 | 1013.8 |
| 20260503232556 | 63 | 262 | 0.0 | 0.0 | 0.00 | 0.00 | 0.00 | 47 | 1013.7 |
| 20260503232053 | 63 | 234 | 0.9 | 0.9 | 0.00 | 0.00 | 0.00 | 51 | 1013.8 |
| 20260503231551 | 64 | 274 | 0.9 | 0.9 | 0.00 | 0.00 | 0.00 | 46 | 1013.6 |
| 20260503231047 | 64 | 267 | 0.9 | 0.9 | 0.00 | 0.00 | 0.00 | 44 | 1013.9 |
| 20260503230544 | 64 | 289 | 0.9 | 0.9 | 0.00 | 0.00 | 0.00 | 44 | 1013.9 |
| 20260503230041 | 64 | 263 | 0.9 | 0.9 | 0.00 | 0.00 | 0.00 | 43 | 1013.9 |
| 20260503225538 | 64 | 247 | 0.9 | 1.7 | 0.00 | 0.00 | 0.00 | 42 | 1013.8 |
| 20260503225039 | 64 | 250 | 0.9 | 0.9 | 0.00 | 0.00 | 0.00 | 42 | 1013.8 |
| 20260503224537 | 64 | 256 | 0.9 | 0.9 | 0.00 | 0.00 | 0.00 | 41 | 1013.9 |
| 20260503224034 | 65 | 262 | 0.9 | 0.9 | 0.00 | 0.00 | 0.00 | 41 | 1013.9 |
| 20260503223532 | 65 | 262 | 0.0 | 0.9 | 0.00 | 0.00 | 0.00 | 42 | 1014.1 |
| 20260503223027 | 65 | 270 | 0.9 | 1.7 | 0.00 | 0.00 | 0.00 | 40 | 1013.9 |
| 20260503222526 | 65 | 250 | 1.7 | 1.7 | 0.00 | 0.00 | 0.00 | 39 | 1014.1 |
| 20260503222024 | 65 | 266 | 1.7 | 1.7 | 0.00 | 0.00 | 0.00 | 38 | 1013.9 |
| 20260503221522 | 66 | 259 | 1.7 | 1.7 | 0.00 | 0.00 | 0.00 | 39 | 1014.0 |
| 20260503221019 | 66 | 261 | 0.9 | 0.9 | 0.00 | 0.00 | 0.00 | 39 | 1014.0 |
| 20260503220515 | 66 | 348 | 0.9 | 1.7 | 0.00 | 0.00 | 0.00 | 41 | 1014.2 |
| 20260503220012 | 66 | 262 | 0.9 | 1.7 | 0.00 | 0.00 | 0.00 | 40 | 1014.1 |
| 20260503215509 | 66 | 266 | 0.9 | 1.7 | 0.00 | 0.00 | 0.00 | 39 | 1014.1 |
| 20260503215006 | 66 | 249 | 2.6 | 2.6 | 0.00 | 0.00 | 0.00 | 39 | 1013.9 |
| 20260503214504 | 66 | 252 | 0.9 | 0.9 | 0.00 | 0.00 | 0.00 | 38 | 1014.0 |
| 20260503214000 | 66 | 267 | 0.9 | 1.7 | 0.00 | 0.00 | 0.00 | 38 | 1014.0 |
| 20260503213459 | 67 | 262 | 1.7 | 1.7 | 0.00 | 0.00 | 0.00 | 43 | 1014.0 |
| 20260503212955 | 66 | 261 | 0.0 | 0.9 | 0.00 | 0.00 | 0.00 | 37 | 1014.1 |
| 20260503212452 | 67 | 252 | 0.9 | 0.9 | 0.00 | 0.00 | 0.00 | 33 | 1014.2 |
| 20260503211949 | 67 | 279 | 1.7 | 1.7 | 0.00 | 0.00 | 0.00 | 39 | 1014.2 |
| 20260503211447 | 67 | 267 | 0.9 | 1.7 | 0.00 | 0.00 | 0.00 | 39 | 1014.3 |
| 20260503210942 | 67 | 247 | 0.9 | 0.9 | 0.00 | 0.00 | 0.00 | 40 | 1014.1 |
| 20260503210439 | 67 | 216 | 0.9 | 0.9 | 0.00 | 0.00 | 0.00 | 42 | 1014.1 |
| 20260503205934 | 67 | 301 | 1.7 | 1.7 | 0.00 | 0.00 | 0.00 | 38 | 1014.2 |
| 20260503205431 | 67 | 247 | 0.9 | 1.7 | 0.00 | 0.00 | 0.00 | 40 | 1014.3 |
| 20260503204927 | 67 | 241 | 0.9 | 0.9 | 0.00 | 0.00 | 0.00 | 40 | 1014.4 |
| 20260503204425 | 66 | 239 | 3.5 | 4.3 | 0.00 | 0.00 | 0.00 | 41 | 1014.4 |
| 20260503203922 | 67 | 215 | 3.5 | 4.3 | 0.00 | 0.00 | 0.00 | 44 | 1014.7 |
| 20260503203419 | 67 | 273 | 0.9 | 0.9 | 0.00 | 0.00 | 0.00 | 44 | 1014.4 |
| 20260503202916 | 67 | 254 | 0.9 | 0.9 | 0.00 | 0.00 | 0.00 | 42 | 1014.4 |
| 20260503202414 | 67 | 276 | 2.6 | 2.6 | 0.00 | 0.00 | 0.00 | 41 | 1014.6 |
| 20260503201912 | 67 | 215 | 1.7 | 1.7 | 0.00 | 0.00 | 0.00 | 37 | 1014.5 |
| 20260503201409 | 67 | 275 | 0.0 | 0.9 | 0.00 | 0.00 | 0.00 | 39 | 1014.9 |
| 20260503200907 | 67 | 307 | 1.7 | 2.6 | 0.00 | 0.00 | 0.00 | 37 | 1014.9 |
| 20260503200402 | 68 | 271 | 0.9 | 1.7 | 0.00 | 0.00 | 0.00 | 39 | 1015.1 |
| 20260503195859 | 67 | 260 | 0.0 | 0.0 | 0.00 | 0.00 | 0.00 | 42 | 1015.1 |
| 20260503195356 | 67 | 240 | 2.6 | 2.6 | 0.00 | 0.00 | 0.00 | 39 | 1015.0 |
| 20260503194853 | 68 | 257 | 0.9 | 0.9 | 0.00 | 0.00 | 0.00 | 39 | 1015.2 |
| 20260503194349 | 68 | 233 | 0.9 | 0.9 | 0.00 | 0.00 | 0.00 | 41 | 1015.5 |
| 20260503193845 | 68 | 308 | 1.7 | 1.7 | 0.00 | 0.00 | 0.00 | 40 | 1015.4 |
| 20260503193341 | 68 | 208 | 1.7 | 1.7 | 0.00 | 0.00 | 0.00 | 36 | 1015.6 |
| 20260503192837 | 69 | 231 | 1.7 | 1.7 | 0.00 | 0.00 | 0.00 | 37 | 1015.7 |
| 20260503192333 | 69 | 247 | 0.9 | 0.9 | 0.00 | 0.00 | 0.00 | 41 | 1015.8 |
| 20260503191830 | 68 | 254 | 0.9 | 0.9 | 0.00 | 0.00 | 0.00 | 38 | 1015.6 |
| 20260503191327 | 69 | 241 | 2.6 | 2.6 | 0.00 | 0.00 | 0.00 | 37 | 1015.9 |
| 20260503190823 | 70 | 284 | 0.9 | 0.9 | 0.00 | 0.00 | 0.00 | 35 | 1015.8 |
| 20260503190321 | 70 | 206 | 2.6 | 2.6 | 0.00 | 0.00 | 0.00 | 40 | 1015.7 |
| 20260503185818 | 68 | 268 | 0.9 | 1.7 | 0.00 | 0.00 | 0.00 | 40 | 1016.0 |
| 20260503185313 | 69 | 332 | 1.7 | 2.6 | 0.00 | 0.00 | 0.00 | 42 | 1016.1 |
| 20260503184808 | 69 | 276 | 0.9 | 0.9 | 0.00 | 0.00 | 0.00 | 38 | 1016.3 |
| 20260503184304 | 69 | 340 | 1.7 | 1.7 | 0.00 | 0.00 | 0.00 | 38 | 1016.1 |
| 20260503183800 | 69 | 271 | 0.9 | 1.7 | 0.00 | 0.00 | 0.00 | 40 | 1016.1 |
| 20260503183258 | 69 | 99 | 0.9 | 1.7 | 0.00 | 0.00 | 0.00 | 38 | 1016.2 |
| 20260503182755 | 68 | 234 | 0.0 | 0.0 | 0.00 | 0.00 | 0.00 | 37 | 1016.2 |
| 20260503182254 | 68 | 265 | 0.9 | 0.9 | 0.00 | 0.00 | 0.00 | 40 | 1016.2 |
| 20260503181750 | 67 | 229 | 3.5 | 4.3 | 0.00 | 0.00 | 0.00 | 41 | 1016.3 |
| 20260503181247 | 68 | 247 | 0.9 | 0.9 | 0.00 | 0.00 | 0.00 | 37 | 1016.5 |
| 20260503180744 | 68 | 245 | 0.9 | 1.7 | 0.00 | 0.00 | 0.00 | 39 | 1016.3 |
| 20260503180242 | 68 | 270 | 0.9 | 0.9 | 0.00 | 0.00 | 0.00 | 39 | 1016.5 |
| 20260503175738 | 67 | 267 | 0.9 | 0.9 | 0.00 | 0.00 | 0.00 | 40 | 1016.4 |
| 20260503175237 | 68 | 298 | 1.7 | 1.7 | 0.00 | 0.00 | 0.00 | 39 | 1016.5 |
| 20260503174732 | 68 | 10 | 0.9 | 0.9 | 0.00 | 0.00 | 0.00 | 38 | 1016.4 |
| 20260503174231 | 68 | 297 | 0.0 | 0.9 | 0.00 | 0.00 | 0.00 | 38 | 1016.5 |
| 20260503173730 | 67 | 2 | 0.9 | 1.7 | 0.00 | 0.00 | 0.00 | 40 | 1016.5 |
| 20260503173227 | 68 | 322 | 0.9 | 1.7 | 0.00 | 0.00 | 0.00 | 37 | 1016.5 |
| 20260503172724 | 67 | 258 | 0.0 | 0.9 | 0.00 | 0.00 | 0.00 | 40 | 1016.6 |
| 20260503172221 | 66 | 218 | 2.6 | 4.3 | 0.00 | 0.00 | 0.00 | 40 | 1016.7 |
| 20260503171717 | 66 | 306 | 1.7 | 1.7 | 0.00 | 0.00 | 0.00 | 41 | 1016.9 |
| 20260503171215 | 67 | 264 | 0.9 | 1.7 | 0.00 | 0.00 | 0.00 | 41 | 1016.9 |
| 20260503170711 | 65 | 258 | 1.7 | 2.6 | 0.00 | 0.00 | 0.00 | 43 | 1016.7 |
| 20260503170208 | 64 | 217 | 1.7 | 1.7 | 0.00 | 0.00 | 0.00 | 45 | 1017.0 |
| 20260503160130 | 62 | 51 | 0.9 | 1.7 | 0.00 | 0.00 | 0.00 | 42 | 1017.4 |
| 20260503150600 | 61 | 296 | 0.0 | 0.9 | 0.00 | 0.00 | 0.00 | 49 | 1017.6 |
| 20260503130949 | 50 | 307 | 0.9 | 1.7 | 0.00 | 0.00 | 0.00 | 80 | 1017.2 |
| 20260503130447 | 50 | 245 | 0.0 | 0.0 | 0.00 | 0.00 | 0.00 | 81 | 1017.1 |